Simultaneous Nadir Overpasses (SNOs) Predictions

Prediction of SNOs between GOES-16 and NOAA-20 Satellite Orbit:

Table of predicted SNOs for the next 14.0 days since TLE Epoch: 1/9/2021
Index Date Time (GOES-16) GOES-16 Lat,Lon NOAA-20 Lat,Lon Distance(km) Time Diff (sec)
1 01/09/2021 06:38:31 -0.00, -75.18 0.66, -78.01 323.66 80
2 01/10/2021 06:17:07 -0.01, -75.18 -0.36, -73.48 192.62 80
3 01/11/2021 18:39:04 0.02, -75.19 -0.79, -78.79 410.93 80
4 01/12/2021 18:23:00 0.02, -75.19 0.23, -74.26 105.81 80
5 01/14/2021 06:44:47 -0.02, -75.19 0.98, -79.52 494.48 80
6 01/15/2021 06:23:22 -0.03, -75.20 -0.04, -74.99 22.87 80
7 01/17/2021 18:26:35 0.03, -75.23 -0.08, -75.78 61.56 80
8 01/18/2021 18:10:31 0.03, -75.25 0.94, -71.24 456.59 80
9 01/20/2021 06:32:18 -0.03, -75.27 0.27, -76.51 141.66 80
10 01/21/2021 06:10:54 -0.03, -75.28 -0.75, -71.98 376.61 80
11 01/22/2021 18:32:51 0.04, -75.32 -0.38, -77.29 224.37 80
